Location: Cabri�res
(43.7840°N, 5.4986°E)
Time: 09:49:48
(UTC+00:00)

CZ-4C R/B - Pass Details

Date: 09 April 2020
Orbit: 637 x 1365 km, 63.4° (Epoch: 03 June)

Event Time Altitude Azimuth Distance (km) Brightness Sun altitude
Rises 22:38:50 0° 320° (NW) 3,893 6.5 -36.4°
Reaches altitude 10° 22:41:24 10° 316° (NW) 3,030 5.7 -36.6°
Enters shadow 22:46:58 49° 282° (WNW) 1,553 3.5 -36.8°
